Location: Burleson Alternative School
(32.5290°N, 97.3406°W)
Time: 07:34:54
(UTC+00:00)

Transit 2A Rocket - Pass Details

Date: 19 November 2024
Orbit: 586 x 903 km, 66.7° (Epoch: 06 December)

Event Time Altitude Azimuth Distance (km) Brightness Sun altitude
Rises 11:54:03 0° 154° (SSE) 3,499 9.0 -14.6°
Reaches altitude 10° 11:58:14 10° 126° (SE) 2,575 8.9 -13.8°
Maximum altitude 12:00:34 12° 103° (ESE) 2,404 9.0 -13.3°
Drops below altitude 10° 12:02:54 10° 80° (E) 2,569 8.8 -12.8°
Sets 12:07:01 0° 52° (NE) 3,482 9.0 -12.0°
